THOR ABLESTAR DEB, 126

Orbit data source: Space-Track

THOR ABLESTAR DEB, 126 is space debris in LEO originally from a launch on Thu, 29 Jun 1961 UTC launched from the Air Force Eastern Test Range (AFETR). Debris objects in space refer to the collection of defunct objects orbiting the Earth. Examples of debris include non-operational satellites, rocket bodies, and fragments generated from explosions, collisions, or faulty payload assembly.

Loading next visibility...
Identifier
126, 1961-015L
Orbit
LEO
Country
Flag of USUS
Related business
Manufacturer
Unknown
Mission
Spacecraft
Bus & Motor
Unknown
Mass
Unknown
Launch date (UTC)
1961-06-29 (64 years ago)
Launch vehicle
Unknown
Launch site
Air Force Eastern Test Range (AFETR)
Object type
Payload
Rocket body
Debris
Shape & HBR
Unknown shape, 0.4 m
Radar Cross Section
Medium (>0.1 m² and <1 m²)

Expand to show TLE details & history
Last TLE update: 20 hours ago

TLE from 20 hours ago
0 THOR ABLESTAR DEB
1 00126U 61015L   25305.56077479  .00001794  00000-0  54152-3 0  9993
2 00126  66.7110 343.1704 0052232  61.5766 299.0589 14.43983866331729
Epoch: 2025-11-01T13:27Z
TLE epoch observation values (Epoch: 2025-11-01T13:27:30.941Z)
Latitude
-0.00003°
Longitude
100.20237°
Altitude
729.563 km
Speed
7.5 km/s
True Right ascension
22h 52m 40s
True Declination
0° 00' 00"
Sunlit
Object was in full shadow at epoch
Visualization orbit readout
Latitude
Unknown
Longitude
Unknown
Altitude
Unknown
Speed
Unknown
Apparent Right ascension
Unknown
Apparent Declination
Unknown
Sunlit
N/A
Visualization observer readout
Local Sidereal Time
05:41:38
Azimuth
Unknown
Elevation
Unknown
Doppler factor
Unknown
Orbital elements
Apogee altitude
780.928 km
Perigee altitude
706.53 km
Semi-major axis
7,121.866 km
Eccentricity
0.00522
Inclination
66.711°
RAAN
343.1704°
Arg. of periapsis
61.5766°
True anomaly
298.53405°
Mean anomaly
299.0589°
Eccentric anomaly
298.79664°
Mean motion
3.61121 °/min
Orbital period
99.69 mins
BSTAR
0.00054152

Documentation

Showing up to 5 results
|